Location: Domachevo
(51.7500°N, 23.6000°E)
Time: 03:37:48
(UTC+02:00)

Envisat - Visible Passes

Search period start: 24 November 2017 00:00
Search period end: 04 December 2017 00:00
Orbit: 764 x 766 km, 98.2° (Epoch: 23 November)

Date Brightness Start Highest point End Pass type
(mag) Time Alt. Az. Time Alt. Az. Time Alt. Az.
24 Nov 5.0 17:44:34 10° NE 17:44:34 10° NE 17:44:36 10° NE visible
24 Nov 4.8 19:24:47 20° N 19:24:47 20° N 19:26:24 10° N visible
24 Nov 5.9 21:04:59 11° NW 21:04:59 11° NW 21:05:10 10° NNW visible
25 Nov 6.1 07:22:26 10° ENE 07:23:43 11° E 07:24:59 10° E visible
25 Nov 4.7 18:47:42 18° NNE 18:47:42 18° NNE 18:49:17 10° N visible
25 Nov 5.4 20:27:54 15° NNW 20:27:54 15° NNW 20:28:49 10° NNW visible
26 Nov 4.9 18:10:38 13° NNE 18:10:38 13° NNE 18:11:44 10° NNE visible
26 Nov 5.0 19:50:50 18° N 19:50:50 18° N 19:52:08 10° NNW visible
27 Nov 4.8 19:13:45 18° N 19:13:45 18° N 19:15:12 10° N visible
27 Nov 5.8 20:53:58 11° NNW 20:53:58 11° NNW 20:54:12 10° NNW visible
28 Nov 4.8 18:36:40 16° NNE 18:36:40 16° NNE 18:37:59 10° N visible
28 Nov 5.4 20:16:53 15° NNW 20:16:53 15° NNW 20:17:44 10° NNW visible
29 Nov 5.0 17:59:35 11° NNE 17:59:35 11° NNE 18:00:12 10° NNE visible
29 Nov 5.0 19:39:47 17° N 19:39:47 17° N 19:40:59 10° N visible
30 Nov 4.9 19:02:42 17° N 19:02:42 17° N 19:03:58 10° N visible
30 Nov 5.7 20:42:54 11° NNW 20:42:54 11° NNW 20:43:12 10° NNW visible
01 Dec 4.9 18:25:36 14° NNE 18:25:36 14° NNE 18:26:38 10° N visible
01 Dec 5.3 20:05:48 15° NNW 20:05:48 15° NNW 20:06:37 10° NNW visible
02 Dec 5.0 19:28:42 16° N 19:28:42 16° N 19:29:47 10° N visible
03 Dec 6.0 07:25:15 10° ENE 07:27:09 12° E 07:29:02 10° ESE visible
03 Dec 4.9 18:51:36 15° N 18:51:36 15° N 18:52:42 10° N visible
03 Dec 5.7 20:31:49 12° NNW 20:31:49 12° NNW 20:32:08 10° NNW visible
